Location: Quedlinburg
(51.7921°N, 11.1414°E)
Time: 05:32:03
(UTC+02:00)

STRAND 1 - Pass Details

Date: 21 March 2026
Orbit: 761 x 775 km, 98.4° (Epoch: 16 April)

Event Time Altitude Azimuth Distance (km) Brightness Sun altitude
Rises 04:04:23 0° 135° (SE) 3,235 ? -20.4°
Reaches altitude 10° 04:06:51 10° 126° (SE) 2,310 ? -20.0°
Maximum altitude 04:11:24 34° 63° (ENE) 1,246 ? -19.4°
Drops below altitude 10° 04:15:58 10° 359° (N) 2,316 ? -18.8°
Sets 04:18:26 0° 351° (N) 3,245 ? -18.4°
